196  
ASUS41 KCLE 201812  
RWRCLE  
OHIO REGIONAL WEATHER ROUNDUP  
NATIONAL WEATHER SERVICE WILMINGTON, OH  
200 PM EDT WED SEP 20 2017  
 
NOTE: "FAIR" INDICATES FEW OR NO CLOUDS BELOW 12,000 FEET WITH NO  
SIGNIFICANT WEATHER AND/OR S TO VISIBILITY
.  
 
OHZ001>008-015>018-024>027-034-035-043-044-201900-  
NORTHWEST OHIO  
 
CITY SKY/WX TMP DP RH WIND PRES REMARKS
 
DEFIANCE PTSUNNY 78 68 71 CALM 30.00F  
FINDLAY FAIR 82 67 60 S7 29.99F  
TOLEDO EXPRESS FAIR 81 70 69 SW8 29.99F  
TOLEDO EXEC PTSUNNY 81 66 60 CALM 30.00F  
LIMA PTSUNNY 82 69 64 VRB5 30.01F  

 
 
OHZ009>014-019>023-028>033-038-089-201900-  
NORTHEAST OHIO  
 
CITY SKY/WX TMP DP RH WIND PRES REMARKS
 
CLE-HOPKINS FAIR 86 62 44 VRB5 30.02F  
CLE-LAKEFRONT FAIR 79 67 66 N7 30.00F  
CUY CO. ARPT PTSUNNY 84 63 48 E5 30.03F  
LORAIN-ELYRIA FAIR 82 61 48 CALM 30.01F  
ASHTABULA FAIR 81 66 60 VRB3 30.03F  
AKRON-CANTON PTSUNNY 81 62 52 SW3 30.03F  
WOOSTER FAIR 81 65 58 CALM 30.03F  
MANSFIELD FAIR 82 65 56 CALM 30.04F  
YOUNGSTOWN PTSUNNY 79 64 60 NW3 30.03F  

 
 
OHZ042-051>053-060>062-070>072-077>081-201900-  
SOUTHWEST OHIO  
 
CITY SKY/WX TMP DP RH WIND PRES REMARKS
 
CINC-COVINGTON PTSUNNY 83 71 67 S9 30.03F  
CINC-LUNKEN FAIR 83 72 69 S9 30.02F  
HAMILTON FAIR 84 70 62 CALM 30.02F  
DAYTON PTSUNNY 81 67 62 CALM 30.03F  
WRIGHT-PAT AFB PTSUNNY 82 69 65 SW5 30.02F  
DAYTON GENERAL PTSUNNY 81 67 62 SW5 30.02F  
WILMINGTON FAIR 82 69 64 W5 30.03F  

 
 
OHZ036-037-039>041-045>050-054>059-063>069-073>076-082>088-201900-  
CENTRAL AND SOUTHEAST OHIO  
 
CITY SKY/WX TMP DP RH WIND PRES REMARKS
 
COLUMBUS PTSUNNY 82 67 60 S5 30.01F  
OSU AIRPORT FAIR 80 66 62 CALM 30.02F  
BOLTON FIELD MOSUNNY 81 66 61 S3 30.03F  
RICKENBACK AFB FAIR 81 65 58 W5 30.01F  
NEWARK FAIR 80 65 59 SW3 30.02F  
MARION PTSUNNY 81 64 56 S6 30.02F  
LANCASTER PTSUNNY 82 67 60 MISG 30.03F  
ZANESVILLE FAIR 74 69 85 CALM 30.03F  
NEW PHILLY FAIR 81 66 60 SE6 30.03F  

 
 
 
CLICK HERE TO GO TO PREVIOUS BULLETINS.

The Nexlab OH Page
The Nexlab PA Page Main Text Page